EST,Max TemperatureF,Mean TemperatureF,Min TemperatureF,Max Dew PointF,MeanDew PointF,Min DewpointF,Max Humidity, Mean Humidity, Min Humidity, Max Sea Level PressureIn, Mean Sea Level PressureIn, Min Sea Level PressureIn, Max VisibilityMiles, Mean VisibilityMiles, Min VisibilityMiles, Max Wind SpeedMPH, Mean Wind SpeedMPH, Max Gust SpeedMPH,PrecipitationIn, CloudCover, Events, WindDirDegrees
2011-12-1,41,32,24,29,27,22,92,84,62,30.35,30.29,30.20,10,8,5,10,5,,0.00,0,,206
2011-12-2,37,34,30,34,30,27,93,86,78,30.52,30.41,30.26,10,7,4,10,5,,0.00,6,,274
2011-12-3,48,39,30,39,33,28,89,77,66,30.48,30.36,30.18,10,8,5,16,10,,0.00,3,,153
2011-12-4,50,48,45,47,41,32,93,78,50,30.18,30.13,30.08,10,9,5,22,17,37,0.07,8,Rain,201
2011-12-5,44,38,33,45,38,30,100,93,87,30.22,30.16,30.11,10,5,1,21,9,26,0.39,8,Rain-Snow,15
2011-12-6,33,32,32,32,31,28,96,92,87,30.19,30.14,30.08,10,7,2,15,11,,0.00,8,Snow,357
2011-12-7,35,32,28,30,26,22,93,81,67,30.08,30.01,29.94,10,9,2,16,9,21,0.00,5,Snow,311
2011-12-8,35,30,26,29,25,22,89,80,70,30.25,30.19,30.06,10,9,7,16,11,,0.00,6,,227
2011-12-9,35,29,21,32,28,17,100,88,71,30.39,30.22,30.16,10,5,1,15,8,,0.00,8,Snow,244
2011-12-10,27,22,17,17,13,11,85,73,53,30.54,30.49,30.39,10,10,10,16,7,,0.00,0,,249
2011-12-11,35,26,16,20,16,11,84,69,50,30.58,30.52,30.47,10,10,10,14,8,,0.00,0,,182
2011-12-12,42,32,21,23,19,15,78,65,41,30.49,30.45,30.42,10,10,9,8,3,,0.00,0,,170
2011-12-13,41,34,26,34,30,21,92,81,73,30.46,30.41,30.33,10,8,5,13,3,26,0.23,7,,167
2011-12-14,55,46,37,51,41,34,100,93,86,30.33,30.19,29.88,10,4,1,22,8,34,0.34,8,Rain,169
2011-12-15,59,47,35,55,44,26,94,82,70,30.12,29.84,29.70,10,9,2,32,26,44,0.30,8,Rain,241
2011-12-16,35,32,28,26,25,23,85,73,64,30.34,30.27,30.15,10,10,10,16,10,,0.00,5,,275
2011-12-17,32,30,28,28,26,23,93,86,69,30.30,30.25,30.19,10,5,1,13,4,,0.05,8,Snow,268
2011-12-18,37,34,30,30,29,27,93,82,70,30.26,30.18,30.06,10,7,5,14,8,20,0.00,5,,225
2011-12-19,50,43,36,40,36,30,82,72,66,30.11,30.01,29.96,10,10,5,20,14,29,0.00,6,Rain,233
2011-12-20,43,38,32,43,36,30,100,94,87,30.17,30.04,29.85,9,4,2,16,8,24,0.20,8,Rain-Snow,93
2011-12-21,57,50,42,54,45,39,100,91,77,29.95,29.75,29.61,10,6,2,22,10,30,0.82,8,Rain,192
2011-12-22,43,41,37,40,37,34,93,84,70,30.11,30.03,29.96,10,10,7,17,8,21,0.00,8,Rain,272
2011-12-23,37,32,28,36,27,20,93,84,64,30.34,30.24,30.07,10,8,2,18,8,24,0.00,8,Rain-Snow,14
2011-12-24,37,31,25,28,26,22,88,77,65,30.41,30.32,30.24,10,10,9,14,9,21,0.00,3,,216
2011-12-25,46,39,32,31,28,27,82,70,51,30.26,30.13,29.99,10,10,10,22,14,32,0.00,2,,245
2011-12-26,44,38,32,30,29,28,89,74,55,30.35,30.21,29.99,10,10,10,15,8,23,0.00,3,,210
2011-12-27,36,34,33,34,32,28,100,93,81,29.95,29.58,29.41,10,4,1,21,8,30,0.28,8,Rain-Snow,196
2011-12-28,32,28,24,28,20,16,88,72,64,30.04,29.96,29.74,10,10,10,25,15,32,0.00,6,,284
2011-12-29,46,37,28,36,30,23,86,80,68,29.97,29.76,29.60,10,10,4,20,11,28,0.00,7,Snow,185
2011-12-30,48,42,37,45,40,33,93,86,79,29.78,29.65,29.53,10,10,7,18,11,29,0.10,7,Rain,188
2011-12-31,42,40,37,39,37,35,100,88,79,30.04,29.89,29.66,10,8,2,16,12,22,0.00,8,,252